#timestamp,LO_Frequency,Hit,StdDev 
1586552415.7,286047001.1,N
1586552435.6,286047000.0,N
1586552455.4,286047004.6,N
1586552475.2,286047005.9,N
1586552495.1,286047005.4,N
1586552496.0,286047005.4,N
1586552515.8,286047005.7,N
1586552535.7,286047004.0,N
1586552555.5,286047001.5,N
1586552575.3,286047004.0,N
1586552595.2,286047005.7,N
1586552615.9,286047003.1,N
1586552635.7,286046998.7,N
1586552655.6,286046996.1,N
1586552675.4,286046985.7,Y
1586552695.3,286046985.1,P
1586552715.1,286046982.3,N
1586552716.0,286046982.3,N
1586552735.8,286046982.6,N
1586552755.7,286046980.6,N
1586552775.5,286046978.2,Y
1586552795.3,286046989.5,P
1586552815.2,286046986.2,P
1586552835.0,286046980.5,P
1586552835.9,286046980.5,Y
1586552855.8,286046999.2,P
1586552875.6,286046994.0,N
1586552895.4,286046994.2,N
1586552915.3,286047002.8,N
1586552935.1,286046994.9,N
1586552955.8,286046995.5,N
1586552975.7,286046999.2,N
1586552995.5,286047001.0,N
1586553015.4,286047008.1,N
1586553035.2,286047012.2,N
1586553055.0,286047016.5,N
1586553055.9,286047016.5,N
1586553075.8,286047015.9,N
1586553095.6,286047015.8,N
1586553115.4,286047010.4,N
1586553135.3,286047005.0,N
1586553155.1,286047001.7,N
1586553175.9,286046999.8,N
1586553195.7,286047003.8,N
1586553215.5,286047005.7,N
1586553235.4,286047010.9,N
1586553255.2,286047014.3,N
1586553275.0,286047015.6,N
1586553276.0,286047015.6,N
1586553295.8,286047012.8,N
1586553315.7,286047013.0,N
1586553335.5,286047017.0,N
1586553355.3,286047017.5,N
1586553375.2,286047021.5,N
1586553395.0,286047033.1,Y
1586553395.9,286047033.1,P
1586553415.8,286047026.6,N
1586553435.6,286047026.3,N
1586553455.5,286047024.1,N
1586553475.3,286047024.2,N
1586553495.1,286047028.0,Y
1586553515.9,286047005.0,P
1586553535.7,286047011.7,N
1586553555.6,286047012.5,N
1586553575.4,286047012.2,N
1586553595.2,286047006.3,N
1586553615.1,286047010.3,N
1586553616.0,286047010.3,N
1586553635.8,286047013.4,N
1586553655.7,286047017.3,Y
1586553675.5,286047008.6,P
1586553695.4,286047008.4,P
1586553715.2,286047009.1,P
1586553735.0,286047010.6,Y
1586553735.9,286047010.6,P
1586553755.8,286046999.7,N
1586553775.6,286047005.4,N
1586553795.5,286047003.7,N
1586553815.3,286047003.9,N
1586553835.1,286047004.1,N
1586553855.9,286047004.9,N
1586553875.7,286047000.5,N
1586553895.6,286047000.1,N
1586553915.4,286047005.5,N
1586553935.3,286047006.0,N
1586553955.1,286047003.1,N
1586553975.9,286047003.2,N
1586553995.7,286047004.9,N
1586554015.5,286047010.6,Y
1586554035.4,286047007.4,P
1586554055.2,286047006.2,P
1586554075.0,286047006.2,P
1586554076.0,286047006.2,Y
1586554095.8,286047004.2,P
1586554115.6,286047009.0,P
1586554135.5,286047008.4,P
1586554155.3,286047004.9,N
1586554175.2,286047007.6,Y
1586554195.9,286047002.3,P
1586554215.7,286047001.3,N
1586554235.6,286047007.3,P
1586554255.4,286047004.8,N
1586554275.2,286047004.2,N
1586554295.1,286047004.8,N
1586554296.0,286047004.8,N
1586554315.8,286047010.5,Y
1586554335.7,286047001.6,P
1586554355.5,286047001.6,N
1586554375.3,286047001.5,N
1586554425.2,286047005.8,E
1586554435.1,286047005.9,N
1586554455.9,286047003.7,P
1586554475.7,286047004.3,P
1586554495.5,286047005.5,Y
1586554515.4,286047002.5,P
1586554535.2,286047009.1,P
1586554555.1,286047007.0,N
1586554556.0,286047007.0,N
1586554575.8,286047007.9,Y
1586554595.6,286047007.2,P
1586554615.5,286047004.8,P
1586554635.3,286047009.8,P
1586554655.2,286047010.9,Y
1586554675.9,286047005.0,P
1586554695.7,286047009.0,P
1586554715.6,286047008.7,P
1586554735.4,286047010.5,Y
1586554755.2,286047001.7,P
1586554775.1,286047001.6,N
1586554776.0,286047001.6,N
1586554795.8,286047003.6,N
1586554815.7,286047000.3,N
1586554835.5,286047001.8,N
1586554855.3,286047001.4,N
1586554875.2,286047002.0,N
1586554895.0,286047005.5,N
1586554895.9,286047005.5,N
1586554915.7,286047005.0,N
1586554935.6,286047007.2,Y
1586554955.4,286047006.4,P
1586554975.3,286047010.6,P
1586554995.1,286047013.4,P
1586555015.8,286047012.7,Y
1586555035.7,286047003.5,P
1586555055.5,286047005.7,N
1586555075.4,286047007.4,P
1586555095.2,286047006.8,Y
1586555115.0,286047000.3,P
1586555115.9,286047000.3,N
1586555135.8,286046999.3,N
1586555155.6,286046993.7,N
1586555175.4,286047000.3,N
1586555195.3,286046997.3,N
1586555215.1,286046997.8,N
1586555235.9,286046996.1,N
1586555255.7,286046993.3,N
1586555275.5,286046992.8,N
1586555295.4,286046995.5,N
1586555315.2,286046998.6,N
1586555335.0,286047000.8,N
1586555335.9,286047000.8,N
1586555355.8,286046998.8,N
1586555375.6,286047001.5,N
1586555395.5,286047006.2,N
1586555415.3,286047005.3,N
1586555435.1,286047004.8,N
1586555455.9,286047003.4,N
1586555475.7,286047000.7,N
1586555495.5,286047003.8,N
1586555515.4,286047000.3,N
1586555535.2,286046998.3,N
1586555555.1,286046999.9,N
1586555556.0,286046999.9,N
1586555575.8,286046992.4,N
1586555595.6,286046989.6,N
1586555615.5,286046989.1,N
1586555635.3,286046993.2,N
1586555655.1,286046996.4,N
1586555675.9,286046992.8,N
1586555695.7,286046992.1,N
1586555715.6,286046991.7,N
1586555735.4,286046996.8,N
1586555755.2,286046992.5,N
1586555775.1,286046988.1,N
1586555776.0,286046988.1,N
1586555795.8,286046985.9,N
1586555815.6,286046983.3,N
1586555835.5,286046978.9,Y
1586555855.3,286046982.4,P
1586555875.2,286046980.8,N
1586555895.9,286046978.5,P
1586555915.7,286046970.4,Y
1586555935.6,286046980.9,P
1586555955.4,286046983.9,P
1586555975.3,286046977.4,P
1586555995.1,286046984.0,Y
1586555996.0,286046984.0,P
